DW5852 Weather Reports


Display with metric or nautical units.
time (UTC)temp
F
wind
direction
speed
MPH
gust
MPH
rain 1hr
in
rain 24hr
in
rain mn
in
humidity
%
barometer
mb
20260504233713 63 281 0.0 5.0 0.00 0.00 0.00 20 1019.3
20260504233213 64 210 1.0 7.0 0.00 0.00 0.00 20 1019.2
20260504232710 64 268 1.0 11.0 0.00 0.00 0.00 20 1019.2
20260504232213 64 246 0.0 4.0 0.00 0.00 0.00 20 1019.1
20260504231710 64 248 0.0 13.0 0.00 0.00 0.00 20 1019.1
20260504231210 64 302 0.0 12.0 0.00 0.00 0.00 20 1019.1
20260504230713 65 238 1.0 17.0 0.00 0.00 0.00 20 1019.1
20260504230213 65 262 0.0 7.0 0.00 0.00 0.00 21 1019.2
20260504225713 65 215 0.0 9.0 0.00 0.00 0.00 21 1019.1
20260504225210 66 267 0.0 2.0 0.00 0.00 0.00 21 1019.1
20260504224713 65 77 0.0 15.0 0.00 0.00 0.00 20 1019.0
20260504224210 66 270 0.0 6.0 0.00 0.00 0.00 19 1019.1
20260504223713 66 287 0.0 6.0 0.00 0.00 0.00 20 1019.0
20260504223210 65 269 1.0 5.0 0.00 0.00 0.00 20 1019.2
20260504222710 65 263 0.0 1.0 0.00 0.00 0.00 20 1019.2
20260504222213 64 309 0.0 14.0 0.00 0.00 0.00 20 1019.1
20260504221713 64 203 0.0 5.0 0.00 0.00 0.00 20 1019.1
20260504221213 63 257 0.0 10.0 0.00 0.00 0.00 20 1019.1
20260504220713 63 256 0.0 6.0 0.00 0.00 0.00 20 1019.0
20260504220213 63 252 1.0 17.0 0.00 0.00 0.00 20 1019.1
20260504215713 64 248 2.0 10.0 0.00 0.00 0.00 19 1019.1
20260504215213 63 252 0.0 11.0 0.00 0.00 0.00 19 1019.0
20260504214713 64 268 0.0 6.0 0.00 0.00 0.00 19 1019.1
20260504214213 64 9 0.0 12.0 0.00 0.00 0.00 19 1019.2
20260504213710 64 290 0.0 6.0 0.00 0.00 0.00 18 1019.2
20260504213210 64 284 0.0 6.0 0.00 0.00 0.00 18 1019.3
20260504212710 64 267 0.0 9.0 0.00 0.00 0.00 18 1019.3
20260504212210 65 245 0.0 1.0 0.00 0.00 0.00 17 1019.3
20260504211710 64 212 0.0 5.0 0.00 0.00 0.00 17 1019.3
20260504211213 63 266 0.0 8.0 0.00 0.00 0.00 17 1019.3
20260504210710 63 238 0.0 18.0 0.00 0.00 0.00 16 1019.4
20260504210213 64 263 0.0 13.0 0.00 0.00 0.00 16 1019.4
20260504205713 64 207 0.0 10.0 0.00 0.00 0.00 16 1019.4
20260504205213 64 259 0.0 4.0 0.00 0.00 0.00 15 1019.5
20260504204710 63 238 0.0 12.0 0.00 0.00 0.00 16 1019.4
20260504204213 63 236 0.0 16.0 0.00 0.00 0.00 15 1019.5
20260504203710 63 268 0.0 16.0 0.00 0.00 0.00 14 1019.5
20260504203213 64 243 0.0 17.0 0.00 0.00 0.00 14 1019.4
20260504202713 64 267 0.0 9.0 0.00 0.00 0.00 16 1019.6
20260504202210 64 281 0.0 9.0 0.00 0.00 0.00 15 1019.5
20260504201713 65 270 0.0 2.0 0.00 0.00 0.00 16 1019.5
20260504201213 65 232 0.0 1.0 0.00 0.00 0.00 16 1019.4
20260504200713 65 221 0.0 4.0 0.00 0.00 0.00 16 1019.4
20260504200213 65 238 0.0 3.0 0.00 0.00 0.00 16 1019.3
20260504195713 65 232 0.0 1.0 0.00 0.00 0.00 18 1019.2
20260504195210 65 200 0.0 2.0 0.00 0.00 0.00 16 1019.1
20260504194713 65 307 0.0 13.0 0.00 0.00 0.00 16 1019.1
20260504194210 65 253 0.0 3.0 0.00 0.00 0.00 16 1019.2
20260504193710 65 228 0.0 1.0 0.00 0.00 0.00 15 1019.1
20260504193210 65 311 0.0 18.0 0.00 0.00 0.00 16 1019.2
20260504192710 65 325 0.0 3.0 0.00 0.00 0.00 17 1019.1
20260504192210 66 274 0.0 2.0 0.00 0.00 0.00 19 1019.2
20260504191713 65 352 0.0 0.0 0.00 0.00 0.00 22 1019.0
20260504191210 65 259 1.0 4.0 0.00 0.00 0.00 21 1019.0
20260504190713 65 284 0.0 1.0 0.00 0.00 0.00 23 1019.0
20260504190210 64 290 0.0 0.0 0.00 0.00 0.00 24 1018.9
20260504185713 63 225 0.0 0.0 0.00 0.00 0.00 23 1018.9
20260504185213 63 248 0.0 0.0 0.00 0.00 0.00 23 1019.1
20260504184713 63 250 0.0 1.0 0.00 0.00 0.00 22 1019.1
20260504184213 63 235 0.0 7.0 0.00 0.00 0.00 22 1019.2
20260504183713 64 280 0.0 2.0 0.00 0.00 0.00 22 1019.0
20260504183210 62 234 0.0 0.0 0.00 0.00 0.00 23 1019.0
20260504182710 62 278 0.0 1.0 0.00 0.00 0.00 21 1019.3
20260504182210 62 327 0.0 0.0 0.00 0.00 0.00 24 1019.2
20260504181710 62 255 0.0 1.0 0.00 0.00 0.00 23 1019.3
20260504181210 62 259 0.0 2.0 0.00 0.00 0.00 22 1019.4
20260504180713 62 194 0.0 9.0 0.00 0.00 0.00 22 1019.4
20260504180210 63 253 1.0 3.0 0.00 0.00 0.00 21 1019.3
20260504175713 63 256 0.0 3.0 0.00 0.00 0.00 21 1019.4
20260504175213 63 226 0.0 3.0 0.00 0.00 0.00 23 1019.4
20260504174710 63 257 0.0 0.0 0.00 0.00 0.00 24 1019.5
20260504174213 63 163 0.0 1.0 0.00 0.00 0.00 26 1019.5
20260504173710 62 258 0.0 0.0 0.00 0.00 0.00 26 1019.5
20260504173213 62 315 0.0 0.0 0.00 0.00 0.00 27 1019.3
20260504172713 62 53 0.0 0.0 0.00 0.00 0.00 27 1019.3
20260504172210 62 262 0.0 1.0 0.00 0.00 0.00 29 1019.5
20260504171710 61 253 0.0 0.0 0.00 0.00 0.00 30 1019.5
20260504171213 61 278 0.0 0.0 0.00 0.00 0.00 30 1019.3
20260504170713 61 252 0.0 0.0 0.00 0.00 0.00 31 1019.2
20260504170213 61 242 0.0 0.0 0.00 0.00 0.00 31 1019.3
20260504160213 60 259 0.0 0.0 0.00 0.00 0.00 36 1019.5
20260504150710 56 207 0.0 0.0 0.00 0.00 0.00 42 1019.9
20260504150213 55 222 0.0 0.0 0.00 0.00 0.00 42 1019.8
20260504141213 52 259 0.0 0.0 0.00 0.00 0.00 51 1020.0
20260504140713 52 205 0.0 0.0 0.00 0.00 0.00 54 1020.0
20260504140210 52 205 0.0 0.0 0.00 0.00 0.00 53 1020.0
20260504130713 50 155 0.0 0.0 0.00 0.00 0.00 57 1020.1
20260504130210 50 177 0.0 0.0 0.00 0.00 0.00 57 1020.3
20260504120213 47 232 0.0 0.0 0.00 0.00 0.00 63 1020.4
20260504110710 48 348 0.0 0.0 0.00 0.00 0.00 62 1021.1
20260504110210 48 348 0.0 0.0 0.00 0.00 0.00 61 1020.8
20260504100213 49 160 0.0 0.0 0.00 0.00 0.00 61 1021.9
20260504081713 51 263 0.0 0.0 0.00 0.00 0.00 55 1023.6
20260504081210 52 262 0.0 0.0 0.00 0.00 0.00 54 1023.6
20260504080710 52 283 0.0 0.0 0.00 0.00 0.00 53 1023.8
20260504080213 51 270 0.0 0.0 0.00 0.00 0.00 54 1024.3
20260504070213 52 169 0.0 0.0 0.00 0.00 0.00 50 1024.6
20260504060213 53 259 0.0 0.0 0.00 0.00 0.00 50 1025.3
20260504050713 53 176 0.0 0.0 0.00 0.00 0.00 48 1025.6
20260504050210 53 212 0.0 0.0 0.00 0.00 0.00 48 1025.7
20260504045710 53 243 0.0 0.0 0.00 0.00 0.00 47 1025.7
20260504045210 53 215 0.0 0.0 0.00 0.00 0.00 45 1025.6
20260504044710 53 224 0.0 0.0 0.00 0.00 0.00 45 1025.7
20260504044213 53 232 0.0 0.0 0.00 0.00 0.00 44 1025.8
20260504043713 54 222 0.0 0.0 0.00 0.00 0.00 43 1025.7
20260504043213 54 232 0.0 0.0 0.00 0.00 0.00 42 1025.7
20260504042710 54 186 0.0 0.0 0.00 0.00 0.00 42 1025.7
20260504042213 54 183 0.0 0.0 0.00 0.00 0.00 41 1025.6
20260504041713 54 166 0.0 0.0 0.00 0.00 0.00 40 1025.7
20260504041213 54 149 0.0 0.0 0.00 0.00 0.00 40 1025.7
20260504040713 54 206 0.0 0.0 0.00 0.00 0.00 39 1025.7
20260504040210 55 229 0.0 0.0 0.00 0.00 0.00 38 1025.6
20260504035713 55 232 0.0 0.0 0.00 0.00 0.00 37 1025.5
20260504035213 55 225 0.0 0.0 0.00 0.00 0.00 36 1025.5
20260504034713 56 242 0.0 0.0 0.00 0.00 0.00 36 1025.5
20260504034213 56 250 0.0 0.0 0.00 0.00 0.00 35 1025.5
20260504033713 55 225 0.0 0.0 0.00 0.00 0.00 34 1025.4
20260504033210 55 276 0.0 0.0 0.00 0.00 0.00 33 1025.5
20260504032710 55 252 0.0 0.0 0.00 0.00 0.00 32 1025.4
20260504032213 56 229 0.0 0.0 0.00 0.00 0.00 31 1025.3
20260504031710 56 235 0.0 0.0 0.00 0.00 0.00 30 1025.2
20260504031213 56 234 0.0 0.0 0.00 0.00 0.00 30 1025.0
20260504030713 57 284 0.0 0.0 0.00 0.00 0.00 30 1024.9
20260504030210 57 218 0.0 0.0 0.00 0.00 0.00 31 1024.8
20260504025713 57 226 0.0 0.0 0.00 0.00 0.00 30 1024.7
20260504025213 57 190 0.0 0.0 0.00 0.00 0.00 29 1024.5
20260504024710 57 226 0.0 0.0 0.00 0.00 0.00 26 1024.4
20260504024213 57 183 0.0 0.0 0.00 0.00 0.00 23 1024.4
20260504023710 58 203 0.0 0.0 0.00 0.00 0.00 22 1024.3
20260504023210 58 233 0.0 0.0 0.00 0.00 0.00 21 1024.3
20260504022710 59 240 0.0 0.0 0.00 0.00 0.00 21 1024.1
20260504022210 60 225 0.0 0.0 0.00 0.00 0.00 20 1024.0
20260504021710 60 248 0.0 0.0 0.00 0.00 0.00 19 1023.8
20260504021210 60 253 0.0 0.0 0.00 0.00 0.00 19 1023.8
20260504020713 61 250 0.0 0.0 0.00 0.00 0.00 19 1023.7
20260504015710 61 221 0.0 0.0 0.00 0.00 0.00 18 1023.5
20260504015210 61 257 0.0 0.0 0.00 0.00 0.00 18 1023.4
20260504014710 62 250 0.0 0.0 0.00 0.00 0.00 18 1023.2
20260504014213 62 252 0.0 0.0 0.00 0.00 0.00 17 1023.2
20260504013710 63 275 0.0 0.0 0.00 0.00 0.00 17 1023.1
20260504013210 63 253 0.0 0.0 0.00 0.00 0.00 17 1023.0
20260504012710 64 259 0.0 0.0 0.00 0.00 0.00 17 1022.9
20260504012213 64 229 0.0 0.0 0.00 0.00 0.00 16 1022.8
20260504011710 65 256 0.0 0.0 0.00 0.00 0.00 17 1022.8
20260504011213 66 240 0.0 0.0 0.00 0.00 0.00 17 1022.7
20260504010710 66 328 0.0 0.0 0.00 0.00 0.00 17 1022.6
20260504010210 66 319 0.0 0.0 0.00 0.00 0.00 17 1022.6
20260504005710 66 240 0.0 0.0 0.00 0.00 0.00 17 1022.6
20260504005210 66 269 0.0 0.0 0.00 0.00 0.00 16 1022.5
20260504004713 66 209 0.0 0.0 0.00 0.00 0.00 17 1022.4
20260504004210 66 259 0.0 1.0 0.00 0.00 0.00 16 1022.3
20260504003713 66 293 0.0 0.0 0.00 0.00 0.00 17 1022.2
20260504003210 66 262 0.0 1.0 0.00 0.00 0.00 17 1022.1
20260504002710 66 276 0.0 0.0 0.00 0.00 0.00 16 1022.1
20260504002210 67 240 0.0 0.0 0.00 0.00 0.00 18 1022.0
20260504001710 67 256 0.0 0.0 0.00 0.00 0.00 19 1022.0
20260504001213 67 269 0.0 0.0 0.00 0.00 0.00 19 1021.9
20260504000713 66 352 0.0 0.0 0.00 0.00 0.00 21 1021.8
20260504000211 66 84 0.0 0.0 0.00 0.00 0.00 21 1021.7
20260503235710 67 73 0.0 0.0 0.00 0.00 0.00 19 1021.7
20260503235213 67 156 0.0 1.0 0.00 0.00 0.00 20 1021.7
20260503234710 67 205 0.0 1.0 0.00 0.00 0.00 22 1021.5
20260503234210 67 156 0.0 0.0 0.00 0.00 0.00 22 1021.4